User: anonymous   Login
Location: Unspecified
(0.0000°N, 0.0000°E)
Time: 19:03:13
(UTC+00:00)
Language:

UFO F6 - Orbit

View from above orbital plane
View from above orbital plane
View from above satellite
View from above satellite

Ground track
Ground track

The orbit data is extracted from the following two-line orbital elements,

1 23696U 95057A   19083.52025299  .00000012  00000-0  00000+0 0  9999
2 23696   9.5703  26.1300 0002761   9.9629 218.2636  0.98763242 85737
Epoch (UTC): 24 March 2019 12:29:09
Eccentricity: 0.0002761
inclination: 9.5703°
perigee height: 36203 km
apogee height: 36226 km
right ascension of ascending node: 26.1300°
argument of perigee: 9.9629°
revolutions per day: 0.98763242
mean anomaly at epoch: 218.2636°
orbit number at epoch: 8573

The dashed part of the orbit path shows where the satellite is in the earth's shadow,  

DLR